{"data":{"norad_id":69671,"epoch":"2026-09-18T22:11:34.598400Z","epoch_age_seconds":157739,"freshness":"FRESH","line1":"1 69671U 26143Y   26261.92470600  .00014577  00000+0  45290-3 0  9996","line2":"2 69671  97.2852 305.1759 0001040  74.0610 286.0747 15.33449957 14905","mean_motion":15.33449957,"eccentricity":0.000104,"inclination_deg":97.2852,"raan_deg":305.1759,"arg_perigee_deg":74.061,"mean_anomaly_deg":286.0747,"bstar":0.0004529,"rev_number":1490,"period_min":93.905901097495,"perigee_km":464.81668476911,"apogee_km":466.24016717771,"semimajor_km":6843.6654259734,"source":"CELESTRAK","updated_at":"2026-09-20T09:00:44.251291Z"}}